Temp
11 12 13 15 19 19 21 23 23 24 24 24 24 25 24 26 27 25 27 31 31 31 31 30 29 29 29 29 29 29 32 32 32 32 32 33 32 32 31 30 30 30 29 28 23
11 12 12 16 18 20 21 22 23 23 24 24 24 25 25 26 24 25 31 31 31 31 30 31 30 30 29 29 30 30 32 32 32 32 32 33 33 32 31 30 29 27 26 24 23
11 13 14 16 18 21 22 22 23 23 24 24 24 25 25 26 26 33 31 31 31 31 30 29 30 30 29 29 29 29 31 31 32 32 32 34 33 31 32 31 31 28 25 25 24
10 15 16 17 20 21 22 22 22 23 24 24 24 25 26 24 32 31 32 31 31 30 29 30 30 30 29 30 29 31 30 31 32 32 32 34 33 31 32 32 32 28 27 26 25
10 12 16 18 20 21 22 23 22 23 24 24 24 25 25 28 31 31 31 31 31 30 30 31 30 30 30 29 29 30 31 31 32 33 34 34 32 32 30 29 29 27 27 27 27
10 13 16 18 20 22 22 23 23 23 24 24 24 24 24 30 31 30 30 30 30 30 30 31 30 30 30 30 29 30 30 31 32 33 34 33 32 32 29 29 28 27 27 28 28
10 14 17 19 20 22 23 23 23 23 24 24 24 24 25 30 30 30 30 31 31 30 30 31 31 31 30 30 29 30 32 33 33 33 33 34 33 32 30 29 28 28 28 28 28
9 13 17 20 20 22 23 23 24 24 24 24 23 23 29 30 30 30 30 31 31 31 30 29 30 30 30 29 30 31 31 32 33 34 32 34 32 30 30 29 29 29 28 28 28
9 12 15 19 21 22 23 24 24 24 24 24 23 24 30 30 30 31 31 32 30 30 29 30 30 29 30 30 31 31 32 31 33 33 33 34 32 31 30 30 30 29 29 29 29
9 10 15 19 21 22 23 24 24 23 23 22 22 26 30 32 31 30 31 31 31 31 29 30 28 28 30 31 32 31 32 31 32 33 33 33 34 32 31 31 31 31 30 29 30
9 9 14 19 21 21 24 23 25 25 23 29 29 30 31 31 31 30 30 31 31 31 29 28 30 29 32 32 32 32 31 31 32 33 33 34 34 34 31 31 31 31 31 31 30
9 9 15 19 21 20 21 24 23 22 27 27 27 28 28 29 31 31 30 33 31 30 28 30 30 32 32 32 32 31 31 32 33 33 33 33 33 34 32 32 32 32 31 31 32
9 10 15 19 20 18 20 22 22 22 26 29 28 29 30 30 31 32 32 31 31 30 29 30 32 31 31 32 32 32 32 32 34 33 33 33 34 33 33 32 32 33 33 33 33
9 10 14 19 18 17 20 22 22 22 29 31 30 31 29 31 31 32 33 33 30 30 30 31 32 32 32 33 32 32 33 33 33 33 34 32 35 33 34 34 33 33 33 33 33
9 10 13 19 18 19 21 23 22 23 29 31 31 30 30 33 32 32 31 32 33 31 30 32 32 32 32 33 33 34 33 33 33 33 33 33 35 36 32 34 35 36 35 35 34
8 10 12 15 17 21 22 23 23 29 29 31 31 31 32 31 31 31 32 33 33 32 31 31 32 32 34 34 34 34 33 33 33 34 34 32 34 37 36 35 37 37 36 36 35
8 10 12 15 20 21 22 24 28 28 30 30 31 32 32 31 31 32 32 31 33 31 31 31 32 32 33 33 34 34 35 35 35 35 35 31 33 36 35 35 34 36 37 36 35
9 10 14 19 20 21 22 28 28 29 29 30 30 30 32 31 32 32 30 30 32 31 31 31 34 33 34 35 36 35 36 36 34 35 35 31 34 36 33 33 33 33 33 32 33
12 13 15 20 21 20 26 28 30 29 29 29 29 31 31 31 32 33 33 33 32 33 32 32 33 34 34 36 36 34 35 33 33 30 34 34 34 34 34 34 32 32 32 31 31
13 14 16 19 20 20 27 26 28 28 28 28 30 30 30 32 33 33 32 33 33 32 32 32 32 33 34 35 34 35 33 35 34 33 34 33 33 36 34 33 31 31 30 30 30
13 22 18 18 19 25 27 28 28 29 29 29 27 29 29 30 32 32 33 32 33 31 32 32 32 34 33 35 36 34 35 31 33 33 35 35 36 32 31 30 31 30 29 29 28
16 24 17 18 25 21 26 26 26 30 28 28 27 27 29 30 31 32 32 31 32 30 32 32 33 33 36 34 33 34 35 36 37 33 31 33 36 30 29 29 30 29 28 28 28
20 21 18 18 26 26 25 28 28 30 29 29 29 28 27 28 29 31 31 32 32 31 32 29 31 34 35 36 34 35 33 33 33 34 33 36 36 30 30 30 29 29 28 28 28
20 24 22 21 20 26 27 28 29 29 30 29 30 27 26 28 28 29 31 32 32 33 24 31 32 34 35 35 34 34 34 33 35 36 34 36 33 30 30 30 29 29 28 28 27
19 24 22 25 25 25 27 27 29 30 30 31 30 30 29 30 29 29 30 32 32 29 30 31 32 31 33 33 32 33 33 33 34 34 37 35 34 32 30 30 30 29 28 28 27
21 22 21 23 23 25 24 27 28 30 30 31 30 31 30 29 31 32 31 32 33 30 31 29 30 29 32 33 34 33 32 32 32 31 31 31 31 31 29 29 29 28 28 28 27
15 16 20 20 23 26 27 28 29 28 30 30 31 32 30 32 31 33 33 33 33 32 30 31 33 30 32 30 33 34 32 31 31 30 32 33 33 29 28 29 29 28 28 28 27
Height
795 793 791 788 787 784 782 782 781 779 777 775 775 772 770 767 764 761 759 755 755 757 758 759 761 763 764 764 764 765 776 786 782 779 774 761 767 762 763 770 771 774 776 779 792
793 791 790 788 786 784 782 781 781 779 777 775 774 771 769 765 760 757 754 754 755 756 758 758 759 761 767 766 765 770 778 781 768 766 767 761 763 765 770 774 778 781 782 786 792
791 790 789 787 785 783 782 780 779 778 776 774 772 770 768 764 761 753 752 753 755 757 758 758 759 761 769 766 768 771 779 771 766 761 759 758 763 765 770 778 770 778 784 788 793
791 788 787 786 784 782 781 779 778 776 775 773 771 769 766 765 775 753 752 754 756 757 759 759 760 766 772 774 767 773 768 766 763 757 757 760 759 770 769 768 763 772 779 786 792
791 787 786 784 783 781 780 778 777 775 773 772 771 768 766 765 758 753 753 754 756 758 759 758 761 765 773 772 771 773 765 763 757 756 752 753 765 769 775 770 770 777 784 787 791
790 786 784 782 781 780 778 777 776 774 772 772 771 769 768 770 754 753 754 755 755 757 759 757 759 759 767 770 774 768 765 761 756 756 755 761 767 765 777 773 776 781 784 787 791
788 784 783 781 779 777 776 775 774 773 771 770 770 769 768 760 753 752 753 754 756 757 759 757 757 761 763 771 766 766 769 759 757 757 762 756 773 775 773 775 779 782 786 789 791
786 782 780 779 777 776 774 773 772 771 769 769 770 769 763 753 753 753 753 754 756 757 758 758 758 760 764 764 768 773 773 783 764 758 762 759 787 775 772 776 781 783 785 788 790
785 781 778 777 776 774 772 770 769 769 769 769 770 769 760 751 752 751 752 753 756 758 758 758 759 766 767 775 781 779 791 787 777 760 763 766 781 771 772 775 780 783 784 785 787
782 780 776 775 773 771 769 768 768 768 769 769 770 772 752 753 750 750 751 753 756 759 762 763 767 776 774 777 795 792 788 786 785 770 765 773 772 769 772 775 776 778 781 783 784
780 778 775 773 772 769 768 767 771 770 769 758 757 755 750 750 750 751 752 752 754 760 776 773 780 788 772 770 770 776 782 786 775 763 769 770 771 767 770 773 776 777 778 778 779
777 775 772 771 771 768 768 768 771 774 767 754 756 754 752 752 754 751 753 756 762 774 774 778 783 767 762 766 772 777 783 781 771 762 768 771 772 764 767 766 766 771 773 773 772
775 773 770 769 769 768 767 769 770 771 770 754 750 749 748 750 753 752 750 754 764 774 776 783 769 762 767 771 776 775 781 779 775 770 767 772 774 771 761 761 762 763 764 765 765
772 770 768 767 772 767 766 768 768 768 774 758 752 743 746 744 755 746 746 751 764 773 772 772 759 764 766 769 768 781 760 765 773 780 788 775 796 777 763 764 762 759 759 757 757
770 768 766 767 767 767 767 767 767 768 800 753 748 740 741 745 746 747 746 749 761 766 771 770 765 765 768 763 760 767 755 764 770 779 783 786 787 769 771 768 758 749 747 746 746
767 765 765 766 765 765 764 763 768 780 798 759 746 749 749 749 750 746 750 747 746 759 760 763 753 757 754 750 753 754 764 768 773 775 797 794 786 774 770 762 750 742 741 739 740
764 763 764 764 764 763 763 765 781 791 759 764 758 748 748 755 755 751 759 764 767 782 781 767 759 750 747 761 752 758 767 792 798 797 799 791 794 770 758 754 752 746 740 739 739
761 760 760 760 761 763 763 769 792 769 768 753 754 752 757 753 752 754 766 775 760 770 781 784 780 755 743 748 752 759 757 780 812 803 794 795 793 770 757 753 747 746 747 746 742
758 759 758 758 760 762 763 777 770 766 758 760 756 759 759 753 753 756 758 759 757 755 779 781 775 744 739 735 741 762 768 761 785 804 797 789 775 759 753 754 754 751 748 750 748
758 758 758 757 757 763 766 776 764 755 754 757 765 758 766 756 756 754 758 744 751 748 749 762 779 750 742 738 745 747 755 774 779 812 811 795 794 773 763 762 762 758 757 757 754
759 755 758 757 759 760 767 764 758 748 749 758 769 766 765 761 751 757 753 746 740 751 747 754 764 757 749 749 749 760 762 775 773 786 790 798 781 764 767 768 767 765 762 760 760
758 756 759 760 761 768 766 759 752 748 749 752 757 763 764 760 756 755 752 743 732 738 753 751 757 768 750 739 737 742 750 749 767 793 794 787 776 762 765 765 765 767 765 762 761
756 758 761 761 760 762 760 753 749 748 749 752 755 757 762 766 768 751 747 734 731 739 747 756 765 770 759 745 743 748 753 755 756 763 783 780 773 762 764 765 766 767 765 763 762
758 758 759 759 761 753 754 754 751 740 744 744 748 752 764 766 757 758 750 736 731 733 746 742 754 753 767 759 752 757 753 755 752 764 773 762 768 770 768 767 766 765 763 764 766
757 751 752 757 753 753 749 751 751 750 739 734 741 742 754 764 763 757 747 738 734 739 740 744 758 757 751 749 753 755 755 754 756 756 757 757 761 762 764 765 763 764 765 766 768
755 753 753 752 753 753 756 752 751 745 741 740 742 734 745 758 748 747 740 740 734 739 742 745 765 765 764 750 747 758 758 756 757 762 765 764 768 755 762 763 766 766 766 768 769
758 756 754 757 753 750 747 744 741 744 735 733 737 737 748 737 728 718 718 721 721 729 741 747 746 771 773 763 758 766 758 758 758 758 756 763 753 759 767 767 767 767 767 769 770
Wind_Speed
13 14 14 12 11 10 10 10 10 10 11 11 13 15 18 20 23 9 6 4 6 6 7 6 6 7 6 3 2 2 2 4 4 5 5 8 4 5 5 12 3 2 4 10 26
12 13 14 13 11 10 10 9 10 9 10 11 13 15 18 23 16 6 1 9 9 6 5 5 4 7 2 0 1 1 2 1 1 3 5 6 5 7 4 10 4 7 13 25 26
12 13 13 13 12 10 10 10 9 10 10 11 12 16 18 17 4 1 4 9 9 5 2 4 7 2 2 1 1 2 2 1 1 6 6 4 5 4 6 6 6 10 18 21 24
14 12 12 13 11 10 9 10 10 9 9 11 12 15 17 4 0 3 4 9 8 6 5 5 3 3 2 1 0 3 3 2 1 5 4 8 10 4 1 4 4 18 22 19 19
14 14 13 12 11 10 10 10 10 10 9 10 11 13 5 3 4 3 5 8 8 7 2 2 1 4 3 3 0 1 2 3 5 2 6 11 7 6 4 9 15 18 19 18 17
15 15 13 12 11 11 10 10 10 10 9 9 9 10 3 4 3 2 5 7 4 4 4 1 2 2 4 2 2 2 5 8 3 5 5 8 6 3 4 11 16 17 16 16 16
15 15 14 13 11 10 10 10 11 10 8 8 7 6 1 9 2 1 7 4 2 2 1 3 3 1 2 2 1 1 1 3 7 2 4 7 4 3 13 13 15 13 14 14 15
16 15 15 13 12 10 10 11 11 9 7 6 3 2 6 2 2 2 8 3 3 2 2 3 3 4 0 1 1 1 2 1 2 1 2 1 2 6 14 14 14 13 13 13 15
16 16 14 13 12 10 10 12 11 7 4 2 1 1 7 6 4 6 7 4 5 2 8 5 2 2 2 2 2 4 3 2 1 1 3 2 1 5 12 12 12 13 13 13 14
16 16 14 13 11 10 9 9 4 1 1 1 1 4 4 3 1 2 11 9 4 5 0 1 2 0 1 1 3 3 3 1 1 2 3 4 5 6 13 13 13 13 14 13 14
16 17 14 12 10 8 6 1 2 3 3 5 1 2 1 6 3 2 4 5 3 2 1 2 1 3 5 3 7 6 1 1 3 4 3 7 7 5 13 13 13 13 14 16 17
16 17 14 10 8 6 4 2 3 4 5 9 12 8 5 2 1 2 7 6 2 4 2 1 6 3 5 8 3 1 2 3 3 4 8 2 2 3 11 14 15 14 15 16 17
16 16 13 8 7 2 2 4 4 2 3 4 5 5 3 9 5 4 10 3 3 4 4 5 1 3 7 5 3 3 5 4 2 4 1 2 2 3 5 10 8 14 14 16 17
16 15 12 5 1 1 1 6 14 6 2 3 4 5 6 8 2 3 14 5 3 4 5 5 2 5 6 5 4 3 6 3 7 6 1 4 2 3 5 6 11 13 14 17 18
15 13 9 2 0 3 4 7 1 3 3 2 3 7 5 7 7 3 5 4 10 4 4 2 3 3 5 4 7 2 1 9 5 4 2 2 3 2 0 7 12 11 14 16 17
14 11 6 3 5 3 3 1 3 3 5 2 4 6 9 3 3 5 6 5 2 6 3 5 2 4 5 4 11 10 6 8 5 2 2 1 3 2 3 5 6 11 13 15 14
14 9 5 7 1 5 4 3 2 3 2 3 1 5 8 6 5 5 9 10 6 2 2 4 4 2 6 6 6 8 5 2 3 3 1 4 4 2 5 8 11 12 8 9 8
13 8 6 12 8 2 2 2 4 1 3 1 0 1 9 5 4 7 3 4 8 3 0 3 4 7 9 7 5 11 4 3 1 0 3 3 4 2 3 7 5 3 7 6 6
5 3 4 2 16 2 2 5 3 3 1 4 3 3 5 5 4 10 10 8 9 16 7 4 4 2 7 3 1 4 3 3 5 2 3 0 2 6 1 9 12 11 12 14 13
1 1 1 4 9 6 2 4 2 2 2 1 2 1 3 7 9 8 9 6 8 9 5 5 4 3 2 3 5 3 8 3 1 4 3 2 4 2 3 10 9 11 13 13 15
1 2 7 6 10 2 5 5 3 2 4 2 1 2 1 3 9 4 3 6 9 8 6 6 3 1 2 5 7 4 4 5 4 2 2 3 3 1 7 5 3 7 10 12 13
1 2 3 12 3 0 4 5 2 4 1 3 2 1 1 6 4 5 6 6 7 8 6 4 3 4 1 1 2 1 3 5 3 4 1 2 1 3 1 5 7 7 8 11 13
1 2 6 3 4 4 2 4 3 4 4 3 5 5 3 3 3 5 4 3 11 11 10 8 4 3 5 5 4 1 3 3 6 3 5 2 2 4 6 9 7 8 9 10 12
1 3 2 0 1 3 5 4 6 5 5 7 6 7 4 5 6 3 4 4 11 9 2 8 4 2 1 1 1 2 4 6 1 3 6 5 6 9 8 8 7 8 9 10 11
1 1 1 5 4 3 3 4 7 5 6 6 2 6 1 4 3 5 6 3 8 6 4 2 2 1 4 5 3 1 1 6 4 0 4 2 9 15 11 8 7 7 7 8 8
1 1 1 1 2 6 1 5 7 6 4 5 5 2 3 6 8 13 4 5 6 8 7 1 1 5 3 2 5 3 2 6 4 5 3 5 5 7 7 6 7 7 6 6 6
2 2 2 1 3 6 5 6 7 3 5 7 4 3 4 13 18 15 12 9 4 11 7 2 4 1 3 5 2 2 1 1 2 2 5 5 4 12 8 7 7 7 5 6 5
Wind_Direction
349 344 341 340 338 337 337 325 326 329 325 324 323 324 328 325 323 301 236 206 166 155 155 132 159 165 158 157 195 215 93 53 27 20 343 160 154 148 97 138 111 83 123 131 146
348 342 338 335 338 333 334 335 327 329 321 321 325 324 330 328 326 258 293 165 148 154 167 176 138 150 93 116 35 49 88 72 322 344 321 216 174 145 140 151 112 87 100 132 145
345 341 338 333 333 330 329 335 331 327 321 320 324 326 330 330 285 32 311 180 175 151 150 115 115 93 103 29 47 111 135 168 47 329 322 194 143 122 147 203 187 161 145 146 152
341 338 335 331 326 328 326 327 325 324 320 319 323 329 329 339 86 349 104 148 151 152 133 132 131 137 130 197 93 162 211 189 270 316 301 161 133 92 236 346 151 149 151 151 161
342 340 333 329 323 321 321 319 321 321 318 317 325 335 352 302 261 3 148 153 151 137 171 157 146 148 150 126 170 261 292 276 322 348 90 128 115 124 53 96 121 137 151 159 165
339 335 331 325 323 316 316 313 314 317 315 312 325 342 350 287 288 318 174 159 159 128 173 259 123 138 101 82 202 274 298 317 346 85 101 123 116 144 116 130 131 148 161 167 174
334 333 328 322 318 314 311 310 309 311 304 301 326 352 287 255 297 130 151 165 180 93 88 67 147 68 124 161 154 253 308 40 43 67 104 129 136 68 145 149 149 160 169 180 193
331 333 327 319 316 313 310 307 302 297 288 287 306 357 260 270 295 201 158 142 130 359 62 113 124 97 44 37 135 47 48 67 8 332 79 299 327 119 160 160 158 170 181 193 200
330 329 328 320 314 314 315 308 304 295 274 256 335 283 271 302 236 224 183 146 138 62 49 111 104 102 177 200 100 22 114 43 358 252 134 219 297 143 171 181 172 179 192 202 212
328 326 327 322 313 320 329 316 310 352 82 130 283 279 256 11 8 151 164 117 110 140 195 65 48 106 165 208 141 122 119 150 283 91 216 182 233 169 182 191 198 191 198 206 216
326 324 325 322 314 326 339 346 244 196 203 224 278 290 6 340 85 81 160 128 106 95 140 16 270 239 272 192 106 106 116 314 255 226 280 240 244 193 187 204 207 209 210 214 220
325 321 320 319 306 321 356 60 75 52 302 239 245 270 270 342 2 342 167 193 183 246 108 160 255 219 75 183 204 164 278 271 275 339 208 214 232 210 185 219 214 212 216 225 231
325 319 317 321 312 334 131 149 26 280 275 280 203 209 200 172 158 223 186 147 225 241 218 222 87 189 211 202 218 239 236 207 177 108 167 222 182 205 215 230 225 224 224 229 234
323 318 316 334 276 285 162 178 321 198 302 230 223 204 142 168 158 207 196 198 191 275 187 248 247 220 206 243 205 284 224 219 162 188 144 328 84 242 227 248 237 233 226 231 233
318 314 313 212 139 210 131 313 229 217 268 67 143 148 162 195 134 155 178 214 237 189 223 19 301 258 239 240 181 323 81 155 135 137 213 170 245 146 237 236 242 238 234 236 234
314 307 302 266 234 191 324 20 179 206 241 46 137 167 159 178 142 118 184 234 307 266 274 276 247 250 248 275 214 151 101 92 98 186 256 7 252 125 196 244 249 237 239 246 233
313 292 234 200 211 145 358 139 181 215 359 25 66 170 183 167 153 141 178 192 211 221 343 323 238 252 227 253 184 216 205 153 171 181 30 338 208 295 312 311 278 288 284 294 275
306 277 246 216 214 268 114 182 212 200 251 347 126 148 199 153 196 209 204 206 229 137 322 284 214 192 178 228 202 187 230 229 249 224 68 146 210 162 346 336 344 350 28 33 30
300 265 250 261 211 186 159 198 224 207 2 308 121 162 179 208 174 200 203 215 198 196 215 187 267 267 229 250 213 161 195 31 104 50 254 199 239 255 253 54 33 48 60 51 58
151 236 283 316 174 155 173 213 235 210 158 51 40 354 193 189 190 184 182 196 180 184 206 186 264 204 158 141 53 258 132 141 83 168 208 173 279 207 353 357 17 57 67 62 63
304 176 351 146 136 150 204 213 230 192 187 133 312 357 288 303 225 181 217 166 184 180 193 152 227 154 239 201 175 140 167 69 105 311 215 186 212 195 293 337 63 64 68 73 74
292 164 37 138 162 134 181 200 178 177 154 107 128 98 339 315 255 216 227 354 146 120 167 196 212 252 230 84 1 85 149 170 209 177 67 304 165 350 0 117 111 90 74 72 76
101 95 172 330 179 180 213 216 222 207 180 160 188 193 193 251 288 233 197 234 193 168 169 175 237 240 150 147 110 197 132 123 109 137 175 222 126 112 131 116 103 102 87 79 72
203 130 150 170 345 193 175 176 218 229 224 196 184 170 159 231 239 279 239 208 184 189 141 156 214 178 87 10 59 219 149 156 287 179 156 227 165 178 158 128 117 111 90 78 75
218 190 358 185 215 187 159 172 211 235 219 207 246 178 159 279 244 224 225 239 168 191 146 210 213 96 287 262 201 51 105 179 209 49 238 43 199 178 164 149 130 115 103 100 94
291 253 130 132 149 181 178 189 210 222 206 210 257 281 191 234 256 289 242 221 183 175 188 149 352 58 280 15 134 118 103 113 118 142 94 149 175 170 145 137 148 146 140 123 111
339 274 278 113 151 186 205 207 227 221 229 244 236 243 255 295 319 285 250 278 229 169 172 134 127 163 324 18 346 264 336 320 103 182 155 179 158 150 150 167 168 162 169 152 138